Terminal Aerodrome Forecast
Issued by NWS

Current Version | Previous Version | Graphics & Text | Print | Product List | Glossary On
Versions: 1 2 3 4 5 6 7 8 9 10 11 12 13 14 15 16 17 18
000
FTUS41 KILN 020200 AAA
TAFLUK
TAF AMD
KLUK 020259Z 0203/0224 24003KT P6SM BKN014 OVC040
     FM020500 30008KT P6SM OVC018
     FM021400 36005KT P6SM SCT025
      TEMPO 0215/0218 BKN025=

USA.gov is the U.S. government's official web portal to all federal, state and local government web resources and services.